Zurück zum Katalog

PRSC-E03

AktivWissenschaftVLEO
NORAD 68835·PAYLOAD·🇨🇳 China

Gestartet Apr 25, 2026 von Taiyuan Satellite Launch Center

Loading…

Nächste Überflüge (nächste 24 Stunden)

TLE

AktuellSource: Space-Track

Epoche: Sep 14, 2026, 12:22 UTC

1 68835U 26092A   26257.51562781  .00001839  00000-0  12754-3 0  9999
2 68835  38.0012 282.7665 0003958 354.9956   5.0766 15.07049765 21436

Verfolge PRSC-E03 in Echtzeit mit AllMySat

Download on the App Store